Flag for Switzerland Weather past 2 weeks in Renens, Vaud, Switzerland

Now
82 °F

Warm.


Feels Like: 82 °F
Forecast: 62 / 85 °F
Wind: 6 mph from North

Location: Aigle

Current Time: Aug 28, 2015 at 5:47:35 PM

Latest Report: Aug 28, 2015 at 4:00 PM


Visibility: N/A

Pressure: 30.04 "Hg

Humidity: 48%

Dew point: 60 °F

Location of RenensLocation

Historic Weather in Renens — Graph

°F

Renens temperature yesterday

Maximum temperature yesterday: 80 °F (at 6:00 PM)
Minimum temperature yesterday: 55 °F (at 4:00 AM)
Average temperature yesterday: 68 °F

Past Weeks' High & Low Weather Summary

 TemperatureHumidityPressure
High82 °F (Aug 13, 4:00 PM)98% (Aug 15, 5:00 AM)30.24 "Hg (Aug 15, 5:00 AM)
Low51 °F (Aug 20, 7:00 AM)37% (Aug 20, 6:00 PM)29.70 "Hg (Aug 24, 5:00 AM)
Average64 °F80%29.98 "Hg
* Reported Aug 13 4:00 PM — Aug 28 4:00 PM, Renens, Weather by CustomWeather, © 2015

Note: Actual official high and low records may vary slightly from our data, if they occured in-between our weather recording intervals... More about our weather records

Advertising

Renens weather history for previous 24 hours

 ConditionsComfort  
Time TempWeatherWind HumidityBarometerVisibility
4:00 PM
Fri, Aug 28
82 °FWarm.6 mph48%30.04 "HgN/A
2:00 PM78 °FPassing clouds.5 mph62%30.06 "Hg25 mi
1:00 PM76 °FMild.8 mph64%30.06 "HgN/A
12:00 PM75 °FMild.9 mph59%30.06 "HgN/A
10:00 AM75 °FMild.10 mph53%30.04 "HgN/A
9:00 AM71 °FMild.6 mph58%30.04 "HgN/A
8:00 AM67 °FPartly sunny.5 mph71%30.04 "Hg19 mi
7:00 AM63 °FMild.3 mph78%30.04 "HgN/A
4:00 AM64 °FMild.3 mph83%30.02 "HgN/A
3:00 AM61 °FCool.2 mph91%30.01 "HgN/A
2:00 AM62 °FCool.5 mph88%30.00 "HgN/A
1:00 AM63 °FMild.3 mph90%30.00 "HgN/A
10:00 PM
Thu, Aug 27
66 °FMild.6 mph86%29.95 "HgN/A
9:00 PM67 °FMild.3 mph77%29.93 "HgN/A
8:00 PM69 °FPartly sunny.2 mph88%29.91 "Hg22 mi
7:00 PM76 °FMild.3 mph63%29.88 "HgN/A
6:00 PM80 °FWarm.2 mph56%29.87 "HgN/A
5:00 PM79 °FPartly sunny.2 mph48%29.88 "Hg22 mi
Weather by CustomWeather, © 2015

See weather overviewHow to use our weather pages